Location: Austin
(30.3000°N, 97.7500°W)
Time: 07:15:03
(UTC-05:00)

VEP-3 - Pass Details

Date: 16 June 2025
Orbit: 1001 x 33743 km, 23.9° (Epoch: 06 July)

Event Time Altitude Azimuth Distance (km) Brightness Sun altitude
Exits shadow 05:19:27 18° 224° (SW) 2,387 3.9 -13.4°
Maximum altitude 05:23:39 45° 157° (SSE) 1,870 3.9 -12.7°
Drops below altitude 10° 05:38:10 10° 88° (E) 7,334 7.9 -10.2°
Sets 05:50:36 0° 84° (E) 11,795 9.3 -8.0°
